GEFSGL_prec_meanprecacc_180.txt.gz
Total_Precipitation_Accumulation
1.46 1.64 1.61 1.45 1.41 1.49 1.42 1.40 1.52 1.57 1.57 1.60 1.59 1.55 1.51 1.56 1.73 1.87 1.85 1.93 2.00 2.03 2.03 2.01 1.95 1.97 2.03 1.92 1.98 2.07 2.21 2.38 2.20 1.95 1.81 1.73 1.68 1.59 1.46 1.21 1.05 0.95 0.83
1.75 1.97 1.96 1.66 1.49 1.40 1.23 1.20 1.34 1.50 1.54 1.55 1.54 1.50 1.45 1.54 1.76 1.88 1.94 2.13 2.20 2.12 2.04 1.99 1.88 1.95 2.03 1.97 2.00 1.96 2.02 2.27 2.23 2.10 2.03 2.04 1.95 1.76 1.65 1.46 1.16 1.03 1.00
1.55 1.80 1.76 1.51 1.34 1.28 1.23 1.23 1.36 1.47 1.49 1.49 1.52 1.57 1.68 1.79 1.95 2.04 2.10 2.22 2.20 2.11 2.11 2.03 1.90 1.93 1.91 1.98 2.03 2.01 1.96 2.01 2.15 2.11 2.05 2.14 2.07 1.86 1.73 1.56 1.41 1.46 1.29
1.11 1.38 1.39 1.27 1.20 1.19 1.23 1.24 1.24 1.26 1.32 1.38 1.57 1.81 1.97 2.07 2.13 2.18 2.17 2.15 2.11 1.98 1.88 1.78 1.77 1.85 1.92 1.93 1.85 1.85 1.87 1.94 2.00 2.02 2.03 2.13 2.16 2.09 1.93 1.78 1.74 1.71 1.55
1.02 1.22 1.21 1.17 1.15 1.11 1.09 1.17 1.23 1.30 1.35 1.53 1.71 1.83 1.85 1.88 1.94 2.06 2.07 2.03 1.97 1.84 1.70 1.49 1.44 1.64 1.76 1.77 1.63 1.71 1.77 1.81 1.84 1.91 1.97 2.08 2.14 2.26 2.08 1.84 1.79 1.86 1.77
0.90 1.10 1.12 1.08 1.05 1.00 1.03 1.14 1.30 1.40 1.53 1.68 1.72 1.70 1.64 1.40 1.47 1.59 1.65 1.69 1.69 1.64 1.50 1.41 1.38 1.41 1.37 1.35 1.32 1.33 1.41 1.52 1.69 1.92 2.02 2.04 2.03 2.13 2.22 2.13 2.06 2.02 1.98
0.89 1.05 1.14 1.12 1.13 1.10 1.09 1.26 1.44 1.59 1.69 1.73 1.73 1.64 1.55 1.52 1.42 1.29 1.27 1.33 1.44 1.46 1.47 1.52 1.31 1.17 1.27 1.25 1.30 1.25 1.20 1.24 1.36 1.61 1.82 1.86 1.96 1.99 2.24 2.27 2.30 2.37 2.34
0.93 1.12 1.20 1.16 1.20 1.29 1.32 1.41 1.62 1.81 1.88 1.85 1.83 1.76 1.74 1.68 1.56 1.33 1.23 1.20 1.38 1.44 1.45 1.48 1.47 1.40 1.38 1.44 1.46 1.38 1.24 1.20 1.18 1.17 1.37 1.63 1.85 2.08 2.14 2.20 2.30 2.37 2.36
0.94 1.09 1.20 1.27 1.37 1.43 1.48 1.65 1.85 2.00 1.98 1.93 1.95 1.92 1.89 1.89 1.71 1.39 1.25 1.26 1.45 1.50 1.50 1.48 1.46 1.42 1.44 1.30 1.27 1.29 1.28 1.25 1.09 1.09 1.17 1.37 1.53 1.61 1.82 2.04 2.21 2.16 2.07
1.24 1.30 1.48 1.69 1.87 1.95 2.00 2.06 2.09 2.15 2.06 2.02 1.99 1.96 1.91 1.91 1.83 1.39 1.19 1.22 1.43 1.50 1.57 1.55 1.43 1.31 1.28 1.15 1.14 1.27 1.26 1.23 1.23 1.17 1.08 1.10 1.17 1.29 1.36 1.41 1.68 1.86 1.77
1.49 1.57 1.79 2.12 2.30 2.27 2.26 2.21 2.17 2.18 2.18 2.15 2.08 2.06 2.02 1.96 1.89 1.49 1.30 1.34 1.51 1.60 1.60 1.56 1.50 1.36 1.17 1.11 1.05 1.09 1.13 1.12 1.18 1.21 1.17 1.12 1.18 1.28 1.23 1.18 1.31 1.49 1.54
1.68 1.88 2.11 2.37 2.32 2.22 2.37 2.31 2.30 2.36 2.33 2.24 2.18 2.11 2.11 2.06 1.90 1.61 1.38 1.43 1.58 1.70 1.77 1.73 1.63 1.41 1.17 1.06 0.98 0.95 0.90 0.84 0.89 1.01 1.04 1.00 1.04 1.15 1.22 1.19 1.21 1.26 1.31
1.86 2.03 2.14 2.25 2.43 2.57 2.62 2.55 2.47 2.43 2.38 2.22 2.12 2.01 1.94 2.00 2.01 1.59 1.33 1.39 1.48 1.53 1.70 1.73 1.46 1.23 1.08 0.93 0.89 0.87 0.78 0.72 0.83 0.90 0.90 0.89 0.88 0.98 1.17 1.29 1.31 1.31 1.26
1.73 1.75 1.87 2.06 2.22 2.31 2.53 2.60 2.51 2.36 2.30 2.25 2.14 2.00 1.93 1.96 1.96 1.63 1.32 1.30 1.37 1.37 1.45 1.52 1.39 1.21 1.07 0.96 0.90 0.85 0.80 0.81 0.89 0.91 0.92 0.95 0.95 1.01 1.09 1.17 1.26 1.29 1.26
1.66 1.62 1.65 1.69 1.81 1.90 2.02 2.14 2.15 2.17 2.00 1.89 1.78 1.72 1.72 1.77 1.74 1.49 1.31 1.31 1.43 1.49 1.45 1.47 1.48 1.35 1.21 1.10 1.07 1.10 1.10 1.05 0.98 0.97 1.00 1.01 0.99 0.98 1.03 1.10 1.17 1.20 1.14
1.59 1.52 1.54 1.55 1.63 1.70 1.75 1.71 1.57 1.51 1.36 1.22 1.18 1.13 1.15 1.21 1.31 1.16 1.04 1.14 1.29 1.35 1.28 1.31 1.42 1.41 1.33 1.25 1.19 1.19 1.17 1.11 1.04 1.04 1.02 1.01 0.98 0.95 0.97 1.02 1.06 1.08 1.05
1.61 1.47 1.38 1.34 1.39 1.43 1.52 1.66 1.72 1.51 1.29 1.11 0.99 0.86 0.84 0.94 1.02 1.03 0.98 1.01 1.09 1.12 1.09 1.15 1.25 1.30 1.26 1.22 1.17 1.14 1.09 1.10 1.11 1.06 1.03 1.03 1.01 0.96 0.94 0.97 0.99 1.05 1.03
1.51 1.40 1.30 1.28 1.33 1.37 1.44 1.56 1.68 1.68 1.43 1.10 0.96 0.83 0.72 0.70 0.73 0.77 0.78 0.82 0.91 0.94 0.95 1.02 1.08 1.12 1.13 1.14 1.13 1.12 1.08 1.09 1.08 1.06 1.02 1.01 1.01 0.97 0.97 0.98 0.95 0.97 1.02
1.33 1.25 1.18 1.22 1.25 1.23 1.29 1.36 1.43 1.47 1.37 1.20 1.00 0.81 0.66 0.56 0.57 0.61 0.61 0.68 0.83 0.88 0.88 0.92 0.93 0.94 0.98 1.02 1.02 1.06 1.06 1.02 1.02 1.05 1.02 0.98 1.01 1.02 1.02 1.01 1.00 1.01 1.02
1.22 1.05 0.98 1.02 1.07 1.07 1.13 1.18 1.21 1.26 1.24 1.17 1.05 0.80 0.60 0.54 0.62 0.68 0.68 0.77 0.87 0.87 0.83 0.86 0.82 0.81 0.86 0.93 0.98 1.03 1.03 1.04 1.07 1.04 1.01 1.00 0.99 1.00 0.97 0.98 1.01 1.03 1.03
1.15 0.98 0.75 0.70 0.79 0.85 0.95 1.04 1.07 1.08 1.11 1.09 0.94 0.67 0.48 0.44 0.57 0.71 0.81 0.85 0.84 0.84 0.78 0.74 0.70 0.72 0.78 0.83 0.88 0.91 0.96 1.03 1.02 1.01 1.05 1.02 0.98 0.98 0.96 0.97 0.96 0.98 1.00
1.03 0.93 0.78 0.69 0.71 0.76 0.84 0.94 0.96 0.93 0.92 0.90 0.80 0.60 0.44 0.41 0.53 0.66 0.73 0.72 0.71 0.73 0.70 0.66 0.65 0.69 0.72 0.75 0.80 0.86 0.91 0.94 0.95 0.98 1.00 1.00 0.99 0.97 0.97 1.01 1.01 1.00 1.01
0.95 0.86 0.76 0.70 0.72 0.71 0.75 0.86 0.87 0.82 0.78 0.73 0.66 0.58 0.49 0.50 0.57 0.65 0.67 0.66 0.66 0.64 0.63 0.62 0.60 0.59 0.65 0.68 0.70 0.76 0.83 0.83 0.84 0.87 0.93 0.98 0.98 0.99 1.03 1.04 1.00 0.96 0.97
0.85 0.81 0.70 0.66 0.68 0.73 0.73 0.75 0.72 0.67 0.64 0.60 0.56 0.55 0.54 0.57 0.60 0.60 0.62 0.62 0.61 0.57 0.54 0.55 0.56 0.56 0.60 0.64 0.64 0.64 0.67 0.69 0.70 0.74 0.79 0.85 0.88 0.95 1.02 1.04 1.00 0.97 1.03
0.82 0.83 0.73 0.63 0.62 0.66 0.67 0.68 0.65 0.63 0.58 0.52 0.51 0.51 0.53 0.55 0.56 0.59 0.59 0.56 0.52 0.51 0.47 0.48 0.54 0.55 0.51 0.51 0.52 0.52 0.56 0.55 0.54 0.61 0.70 0.79 0.81 0.88 1.00 1.04 1.04 1.03 1.10
0.75 0.78 0.72 0.63 0.59 0.60 0.61 0.68 0.69 0.63 0.57 0.49 0.48 0.50 0.48 0.45 0.45 0.47 0.46 0.44 0.43 0.43 0.44 0.45 0.48 0.49 0.47 0.45 0.44 0.45 0.43 0.40 0.42 0.51 0.56 0.64 0.75 0.82 0.90 0.96 0.95 1.03 1.10

GEFSGL_prec_meanprecacc_186.txt.gz
Total_Precipitation_Accumulation
1.50 1.68 1.64 1.49 1.46 1.56 1.49 1.47 1.60 1.66 1.66 1.70 1.68 1.63 1.60 1.69 1.85 2.01 2.00 2.11 2.21 2.24 2.22 2.16 2.08 2.10 2.16 2.06 2.12 2.22 2.37 2.53 2.33 2.06 1.93 1.85 1.81 1.72 1.61 1.36 1.20 1.12 1.00
1.77 1.99 1.98 1.68 1.52 1.44 1.29 1.29 1.48 1.66 1.69 1.66 1.64 1.59 1.53 1.61 1.84 1.99 2.09 2.31 2.40 2.30 2.21 2.15 2.04 2.12 2.21 2.14 2.15 2.10 2.15 2.40 2.35 2.20 2.14 2.16 2.06 1.88 1.80 1.60 1.29 1.15 1.13
1.58 1.82 1.77 1.53 1.37 1.32 1.31 1.35 1.51 1.63 1.62 1.58 1.60 1.64 1.74 1.86 2.02 2.15 2.25 2.39 2.37 2.25 2.23 2.14 2.02 2.05 2.04 2.11 2.15 2.11 2.06 2.10 2.25 2.20 2.13 2.23 2.16 1.95 1.83 1.66 1.52 1.58 1.42
1.14 1.40 1.41 1.29 1.23 1.25 1.32 1.34 1.33 1.35 1.41 1.46 1.64 1.86 2.02 2.13 2.21 2.27 2.27 2.23 2.21 2.10 2.01 1.91 1.87 1.95 2.00 2.02 1.95 1.92 1.93 2.00 2.07 2.08 2.09 2.19 2.23 2.16 2.01 1.87 1.84 1.81 1.66
1.04 1.25 1.22 1.20 1.20 1.17 1.17 1.24 1.30 1.36 1.43 1.62 1.78 1.88 1.89 1.93 2.00 2.13 2.13 2.08 2.03 1.93 1.82 1.63 1.59 1.78 1.86 1.86 1.73 1.80 1.86 1.89 1.91 1.99 2.04 2.14 2.20 2.32 2.13 1.89 1.85 1.92 1.84
0.93 1.14 1.15 1.13 1.11 1.05 1.09 1.19 1.36 1.46 1.61 1.77 1.80 1.77 1.71 1.47 1.54 1.65 1.72 1.75 1.74 1.68 1.56 1.49 1.50 1.54 1.48 1.45 1.44 1.43 1.50 1.59 1.77 2.00 2.09 2.10 2.08 2.18 2.26 2.17 2.10 2.06 2.02
0.91 1.06 1.16 1.14 1.15 1.13 1.12 1.29 1.47 1.63 1.77 1.88 1.86 1.76 1.64 1.58 1.47 1.34 1.33 1.38 1.48 1.50 1.51 1.57 1.38 1.25 1.34 1.32 1.36 1.31 1.24 1.29 1.39 1.64 1.86 1.90 2.00 2.01 2.27 2.30 2.34 2.41 2.39
0.95 1.14 1.22 1.17 1.22 1.32 1.35 1.44 1.66 1.88 2.01 2.01 1.94 1.84 1.80 1.75 1.64 1.41 1.30 1.25 1.41 1.47 1.47 1.51 1.50 1.43 1.42 1.48 1.49 1.40 1.27 1.22 1.20 1.19 1.38 1.65 1.87 2.09 2.16 2.22 2.32 2.40 2.40
0.97 1.12 1.21 1.28 1.39 1.45 1.51 1.68 1.89 2.06 2.07 2.00 2.03 1.99 1.96 1.98 1.80 1.46 1.29 1.29 1.49 1.53 1.52 1.50 1.48 1.44 1.48 1.35 1.29 1.30 1.29 1.26 1.10 1.11 1.18 1.38 1.55 1.62 1.83 2.05 2.24 2.20 2.13
1.28 1.33 1.51 1.70 1.88 1.98 2.04 2.10 2.13 2.18 2.08 2.04 2.04 2.06 2.02 2.02 1.91 1.44 1.23 1.26 1.46 1.51 1.58 1.56 1.46 1.33 1.30 1.17 1.15 1.28 1.27 1.25 1.25 1.18 1.09 1.11 1.18 1.30 1.37 1.43 1.69 1.89 1.81
1.55 1.62 1.82 2.14 2.33 2.33 2.33 2.28 2.21 2.21 2.21 2.18 2.11 2.09 2.06 2.00 1.92 1.51 1.32 1.35 1.51 1.61 1.61 1.58 1.52 1.38 1.18 1.12 1.06 1.10 1.14 1.13 1.19 1.21 1.17 1.12 1.19 1.29 1.24 1.19 1.32 1.51 1.56
1.74 1.92 2.13 2.38 2.36 2.28 2.45 2.39 2.36 2.41 2.37 2.27 2.20 2.13 2.12 2.07 1.91 1.62 1.38 1.44 1.58 1.70 1.77 1.73 1.63 1.41 1.17 1.07 0.98 0.95 0.91 0.85 0.90 1.03 1.06 1.01 1.05 1.16 1.22 1.19 1.22 1.26 1.31
1.95 2.07 2.16 2.27 2.46 2.61 2.67 2.59 2.51 2.48 2.42 2.25 2.15 2.02 1.96 2.01 2.02 1.60 1.34 1.40 1.49 1.53 1.70 1.73 1.46 1.23 1.08 0.93 0.89 0.88 0.78 0.73 0.84 0.91 0.91 0.90 0.89 0.98 1.18 1.29 1.31 1.31 1.26
1.87 1.83 1.91 2.08 2.24 2.33 2.57 2.63 2.54 2.39 2.34 2.28 2.16 2.02 1.95 1.98 1.98 1.65 1.33 1.31 1.38 1.37 1.46 1.52 1.39 1.21 1.07 0.96 0.90 0.86 0.80 0.81 0.90 0.92 0.93 0.96 0.96 1.01 1.09 1.17 1.26 1.29 1.26
1.80 1.71 1.71 1.72 1.83 1.93 2.04 2.16 2.17 2.18 2.02 1.91 1.79 1.73 1.73 1.78 1.75 1.50 1.32 1.32 1.43 1.49 1.45 1.47 1.48 1.35 1.21 1.10 1.07 1.10 1.10 1.05 0.98 0.97 1.00 1.02 0.99 0.99 1.03 1.10 1.17 1.20 1.14
1.66 1.58 1.58 1.58 1.64 1.72 1.76 1.72 1.57 1.52 1.37 1.23 1.19 1.14 1.16 1.21 1.31 1.16 1.05 1.14 1.29 1.35 1.28 1.31 1.42 1.41 1.33 1.25 1.19 1.19 1.17 1.11 1.04 1.04 1.03 1.01 0.98 0.95 0.97 1.02 1.06 1.08 1.05
1.65 1.50 1.41 1.36 1.41 1.45 1.53 1.66 1.72 1.52 1.30 1.12 1.00 0.87 0.85 0.94 1.03 1.03 0.98 1.01 1.09 1.12 1.09 1.15 1.25 1.30 1.26 1.22 1.17 1.14 1.09 1.10 1.11 1.06 1.03 1.03 1.01 0.96 0.94 0.97 0.99 1.05 1.03
1.55 1.44 1.34 1.33 1.37 1.40 1.46 1.57 1.69 1.69 1.44 1.11 0.96 0.84 0.72 0.70 0.73 0.77 0.78 0.82 0.91 0.94 0.95 1.02 1.08 1.12 1.13 1.14 1.13 1.12 1.08 1.09 1.08 1.06 1.02 1.01 1.01 0.97 0.97 0.98 0.95 0.97 1.02
1.37 1.29 1.23 1.28 1.30 1.28 1.33 1.38 1.44 1.48 1.38 1.20 1.01 0.82 0.67 0.56 0.57 0.62 0.61 0.68 0.84 0.88 0.88 0.92 0.93 0.94 0.98 1.02 1.02 1.06 1.06 1.02 1.02 1.05 1.02 0.98 1.01 1.02 1.02 1.01 1.00 1.01 1.02
1.25 1.09 1.01 1.08 1.13 1.12 1.16 1.20 1.22 1.27 1.25 1.18 1.05 0.81 0.61 0.55 0.62 0.69 0.69 0.78 0.87 0.87 0.83 0.86 0.82 0.81 0.86 0.93 0.98 1.03 1.03 1.04 1.07 1.04 1.01 1.00 0.99 1.00 0.97 0.98 1.01 1.03 1.03
1.18 1.00 0.78 0.73 0.83 0.89 0.98 1.05 1.08 1.09 1.11 1.09 0.94 0.68 0.49 0.45 0.58 0.72 0.82 0.85 0.85 0.84 0.78 0.74 0.70 0.72 0.78 0.84 0.88 0.91 0.96 1.03 1.02 1.01 1.05 1.02 0.98 0.98 0.96 0.97 0.96 0.98 1.00
1.06 0.96 0.80 0.70 0.73 0.78 0.86 0.96 0.97 0.94 0.93 0.91 0.80 0.61 0.45 0.41 0.54 0.67 0.73 0.73 0.71 0.73 0.70 0.66 0.65 0.69 0.72 0.75 0.80 0.86 0.91 0.94 0.95 0.98 1.00 1.00 0.99 0.97 0.97 1.01 1.01 1.00 1.01
0.99 0.91 0.78 0.71 0.73 0.72 0.77 0.87 0.88 0.83 0.79 0.74 0.66 0.58 0.49 0.51 0.58 0.66 0.68 0.66 0.66 0.65 0.63 0.62 0.60 0.59 0.65 0.68 0.70 0.76 0.83 0.83 0.84 0.87 0.93 0.98 0.98 0.99 1.03 1.04 1.00 0.96 0.97
0.90 0.85 0.73 0.68 0.70 0.74 0.74 0.76 0.73 0.69 0.66 0.61 0.57 0.55 0.54 0.57 0.60 0.60 0.62 0.62 0.61 0.57 0.54 0.55 0.56 0.57 0.60 0.64 0.64 0.64 0.67 0.69 0.70 0.74 0.79 0.85 0.88 0.95 1.02 1.05 1.01 0.97 1.03
0.86 0.86 0.76 0.66 0.64 0.67 0.68 0.69 0.66 0.64 0.59 0.54 0.52 0.52 0.54 0.55 0.56 0.60 0.59 0.56 0.52 0.51 0.47 0.49 0.55 0.55 0.51 0.52 0.52 0.52 0.56 0.55 0.54 0.61 0.70 0.79 0.81 0.88 1.00 1.04 1.04 1.04 1.11
0.78 0.80 0.74 0.65 0.60 0.60 0.62 0.68 0.70 0.63 0.57 0.50 0.49 0.51 0.48 0.45 0.45 0.47 0.47 0.45 0.44 0.45 0.45 0.47 0.49 0.50 0.48 0.46 0.44 0.45 0.43 0.40 0.42 0.51 0.56 0.64 0.75 0.82 0.90 0.96 0.95 1.03 1.10

GEFSGL_prec_meanprecacc_192.txt.gz
Total_Precipitation_Accumulation
1.53 1.71 1.69 1.54 1.51 1.61 1.52 1.50 1.64 1.71 1.70 1.74 1.74 1.70 1.67 1.75 1.92 2.07 2.06 2.20 2.31 2.36 2.37 2.30 2.20 2.21 2.26 2.16 2.23 2.33 2.50 2.67 2.46 2.16 2.01 1.93 1.88 1.79 1.67 1.42 1.25 1.17 1.05
1.80 2.02 2.00 1.71 1.55 1.46 1.32 1.33 1.54 1.74 1.77 1.74 1.71 1.66 1.60 1.66 1.89 2.04 2.16 2.39 2.49 2.41 2.32 2.27 2.16 2.26 2.34 2.26 2.26 2.21 2.26 2.51 2.46 2.30 2.22 2.23 2.13 1.95 1.86 1.66 1.34 1.20 1.18
1.61 1.85 1.79 1.54 1.38 1.34 1.34 1.40 1.56 1.69 1.69 1.63 1.64 1.69 1.79 1.90 2.06 2.19 2.30 2.44 2.41 2.30 2.31 2.23 2.10 2.12 2.10 2.16 2.21 2.17 2.12 2.17 2.31 2.26 2.19 2.28 2.22 2.01 1.90 1.72 1.57 1.63 1.47
1.17 1.43 1.43 1.30 1.24 1.27 1.34 1.37 1.36 1.39 1.45 1.50 1.68 1.90 2.06 2.17 2.26 2.32 2.31 2.26 2.24 2.14 2.06 1.98 1.96 2.02 2.05 2.05 1.99 1.97 1.98 2.06 2.13 2.14 2.15 2.26 2.28 2.21 2.06 1.92 1.88 1.86 1.71
1.06 1.27 1.25 1.22 1.21 1.18 1.19 1.26 1.31 1.38 1.46 1.66 1.83 1.93 1.95 1.99 2.06 2.18 2.18 2.12 2.07 1.97 1.85 1.68 1.68 1.92 1.99 1.94 1.79 1.86 1.93 1.97 1.99 2.07 2.13 2.24 2.29 2.39 2.19 1.95 1.91 1.98 1.89
0.96 1.18 1.17 1.15 1.12 1.07 1.10 1.19 1.36 1.46 1.62 1.79 1.83 1.82 1.76 1.52 1.59 1.70 1.75 1.77 1.77 1.72 1.60 1.53 1.56 1.65 1.64 1.60 1.56 1.56 1.61 1.69 1.86 2.09 2.20 2.21 2.18 2.26 2.33 2.23 2.16 2.12 2.08
0.95 1.12 1.20 1.17 1.18 1.15 1.13 1.29 1.48 1.64 1.79 1.90 1.88 1.83 1.74 1.66 1.53 1.38 1.36 1.40 1.52 1.53 1.55 1.60 1.41 1.30 1.42 1.42 1.46 1.40 1.34 1.39 1.49 1.72 1.92 1.97 2.06 2.07 2.32 2.35 2.38 2.46 2.44
0.99 1.20 1.28 1.22 1.25 1.34 1.36 1.45 1.67 1.89 2.03 2.04 1.98 1.89 1.87 1.82 1.71 1.47 1.37 1.32 1.47 1.52 1.50 1.53 1.52 1.45 1.44 1.52 1.54 1.45 1.32 1.28 1.26 1.23 1.42 1.68 1.90 2.12 2.19 2.25 2.35 2.42 2.42
1.02 1.19 1.29 1.34 1.43 1.47 1.52 1.69 1.91 2.10 2.12 2.07 2.10 2.05 2.01 2.04 1.86 1.51 1.34 1.34 1.52 1.55 1.54 1.51 1.49 1.45 1.49 1.36 1.32 1.32 1.31 1.27 1.11 1.12 1.20 1.39 1.56 1.63 1.84 2.06 2.25 2.22 2.15
1.34 1.41 1.59 1.77 1.93 2.01 2.06 2.13 2.17 2.23 2.15 2.11 2.11 2.13 2.08 2.08 1.98 1.48 1.25 1.27 1.47 1.52 1.59 1.57 1.47 1.34 1.31 1.18 1.15 1.29 1.27 1.25 1.25 1.18 1.09 1.11 1.18 1.30 1.37 1.43 1.70 1.90 1.82
1.62 1.70 1.90 2.19 2.36 2.35 2.36 2.30 2.24 2.25 2.25 2.22 2.15 2.13 2.10 2.04 1.96 1.54 1.34 1.37 1.52 1.62 1.62 1.59 1.53 1.39 1.19 1.12 1.06 1.10 1.15 1.13 1.19 1.21 1.17 1.12 1.19 1.29 1.24 1.20 1.33 1.52 1.58
1.84 2.00 2.18 2.41 2.37 2.29 2.46 2.40 2.37 2.43 2.40 2.30 2.23 2.15 2.16 2.11 1.94 1.63 1.39 1.44 1.59 1.71 1.78 1.73 1.64 1.42 1.18 1.07 0.98 0.95 0.91 0.85 0.90 1.03 1.06 1.02 1.05 1.16 1.23 1.20 1.23 1.27 1.32
2.04 2.14 2.20 2.29 2.47 2.62 2.68 2.60 2.52 2.50 2.44 2.27 2.16 2.04 1.97 2.03 2.03 1.61 1.35 1.41 1.49 1.54 1.71 1.74 1.48 1.24 1.09 0.94 0.90 0.88 0.78 0.73 0.84 0.91 0.91 0.90 0.89 0.99 1.19 1.31 1.33 1.32 1.27
1.94 1.92 1.99 2.14 2.27 2.35 2.58 2.64 2.55 2.40 2.35 2.30 2.19 2.05 1.97 2.00 2.00 1.67 1.35 1.33 1.40 1.39 1.47 1.54 1.40 1.22 1.08 0.96 0.90 0.86 0.80 0.81 0.90 0.92 0.93 0.96 0.97 1.03 1.11 1.19 1.28 1.32 1.28
1.88 1.82 1.82 1.83 1.91 1.97 2.06 2.17 2.18 2.19 2.02 1.92 1.82 1.76 1.76 1.80 1.77 1.52 1.34 1.33 1.44 1.50 1.45 1.48 1.48 1.35 1.21 1.10 1.07 1.10 1.10 1.06 0.98 0.97 1.00 1.02 0.99 0.99 1.04 1.10 1.17 1.21 1.14
1.72 1.65 1.66 1.66 1.70 1.75 1.78 1.73 1.58 1.52 1.37 1.23 1.19 1.15 1.17 1.23 1.32 1.17 1.05 1.14 1.29 1.35 1.28 1.31 1.42 1.41 1.33 1.25 1.19 1.19 1.17 1.11 1.04 1.04 1.03 1.01 0.98 0.95 0.97 1.02 1.06 1.08 1.05
1.71 1.56 1.45 1.39 1.44 1.47 1.55 1.67 1.73 1.52 1.30 1.12 1.00 0.87 0.85 0.95 1.04 1.04 0.99 1.02 1.10 1.12 1.09 1.16 1.26 1.30 1.26 1.23 1.17 1.14 1.09 1.10 1.11 1.06 1.03 1.03 1.01 0.96 0.94 0.97 0.99 1.05 1.03
1.61 1.49 1.38 1.35 1.39 1.42 1.48 1.58 1.70 1.69 1.44 1.11 0.96 0.85 0.73 0.72 0.74 0.78 0.79 0.83 0.91 0.95 0.96 1.03 1.08 1.13 1.13 1.14 1.13 1.12 1.08 1.09 1.08 1.06 1.02 1.01 1.01 0.97 0.97 0.98 0.95 0.97 1.02
1.46 1.38 1.31 1.33 1.34 1.31 1.35 1.40 1.45 1.48 1.38 1.21 1.01 0.83 0.68 0.58 0.59 0.63 0.62 0.68 0.84 0.89 0.88 0.92 0.93 0.95 0.98 1.02 1.02 1.06 1.06 1.02 1.02 1.05 1.02 0.98 1.01 1.02 1.02 1.01 1.00 1.01 1.02
1.32 1.20 1.10 1.15 1.18 1.17 1.21 1.23 1.24 1.28 1.25 1.18 1.06 0.81 0.61 0.56 0.64 0.70 0.70 0.79 0.88 0.88 0.83 0.87 0.82 0.82 0.87 0.93 0.98 1.03 1.03 1.04 1.07 1.04 1.01 1.00 0.99 1.00 0.97 0.98 1.01 1.03 1.03
1.24 1.05 0.83 0.78 0.87 0.95 1.04 1.11 1.12 1.12 1.14 1.11 0.95 0.69 0.50 0.45 0.58 0.73 0.83 0.86 0.86 0.85 0.79 0.74 0.70 0.72 0.78 0.84 0.88 0.91 0.96 1.03 1.02 1.01 1.05 1.02 0.98 0.98 0.96 0.97 0.96 0.98 1.00
1.11 0.99 0.84 0.74 0.76 0.81 0.90 1.00 1.03 0.99 0.98 0.95 0.83 0.63 0.47 0.42 0.54 0.67 0.74 0.73 0.72 0.74 0.71 0.67 0.65 0.69 0.72 0.75 0.80 0.86 0.91 0.94 0.95 0.98 1.00 1.00 0.99 0.97 0.97 1.01 1.01 1.00 1.01
1.03 0.95 0.83 0.75 0.76 0.76 0.81 0.92 0.93 0.88 0.85 0.79 0.71 0.62 0.53 0.53 0.59 0.66 0.68 0.67 0.67 0.65 0.63 0.62 0.60 0.59 0.65 0.68 0.70 0.76 0.83 0.83 0.84 0.87 0.93 0.98 0.98 0.99 1.03 1.04 1.00 0.96 0.97
0.94 0.91 0.78 0.72 0.74 0.78 0.78 0.80 0.78 0.73 0.70 0.65 0.60 0.58 0.57 0.60 0.62 0.61 0.63 0.63 0.62 0.57 0.54 0.56 0.57 0.57 0.60 0.65 0.65 0.64 0.67 0.69 0.70 0.74 0.79 0.85 0.88 0.95 1.02 1.05 1.01 0.97 1.03
0.89 0.91 0.81 0.71 0.70 0.73 0.73 0.73 0.69 0.67 0.62 0.56 0.53 0.53 0.54 0.56 0.57 0.60 0.60 0.57 0.53 0.51 0.47 0.49 0.55 0.55 0.51 0.52 0.53 0.53 0.57 0.55 0.54 0.61 0.70 0.79 0.81 0.88 1.00 1.04 1.04 1.04 1.11
0.79 0.82 0.77 0.68 0.64 0.65 0.66 0.72 0.72 0.66 0.59 0.53 0.51 0.52 0.49 0.46 0.46 0.48 0.48 0.46 0.45 0.46 0.46 0.47 0.50 0.50 0.49 0.46 0.45 0.45 0.43 0.41 0.42 0.52 0.56 0.64 0.75 0.82 0.90 0.96 0.95 1.03 1.11

GEFSGL_prec_meanprecacc_198.txt.gz
Total_Precipitation_Accumulation
1.53 1.72 1.69 1.54 1.53 1.62 1.54 1.53 1.67 1.73 1.72 1.76 1.76 1.72 1.70 1.80 1.97 2.11 2.09 2.24 2.36 2.41 2.42 2.35 2.26 2.28 2.36 2.28 2.36 2.47 2.63 2.79 2.56 2.25 2.09 2.02 2.00 1.90 1.78 1.52 1.34 1.24 1.11
1.81 2.02 2.01 1.72 1.56 1.48 1.35 1.36 1.57 1.76 1.79 1.75 1.72 1.69 1.63 1.70 1.93 2.08 2.20 2.45 2.56 2.48 2.39 2.35 2.24 2.34 2.44 2.38 2.40 2.35 2.39 2.63 2.56 2.39 2.31 2.33 2.25 2.05 1.95 1.74 1.41 1.27 1.25
1.62 1.86 1.80 1.56 1.39 1.35 1.35 1.42 1.58 1.70 1.71 1.66 1.66 1.71 1.82 1.92 2.10 2.24 2.35 2.51 2.47 2.37 2.37 2.29 2.18 2.21 2.19 2.25 2.29 2.25 2.20 2.25 2.40 2.36 2.28 2.37 2.31 2.10 2.00 1.81 1.67 1.76 1.59
1.18 1.44 1.45 1.32 1.26 1.28 1.35 1.38 1.37 1.40 1.46 1.52 1.70 1.92 2.09 2.21 2.31 2.37 2.37 2.33 2.29 2.18 2.11 2.02 2.01 2.08 2.15 2.17 2.10 2.07 2.07 2.14 2.21 2.23 2.26 2.36 2.37 2.31 2.15 2.01 2.01 1.98 1.82
1.07 1.28 1.26 1.23 1.22 1.19 1.20 1.27 1.32 1.38 1.46 1.67 1.84 1.94 1.97 2.03 2.10 2.23 2.23 2.15 2.10 2.00 1.89 1.71 1.73 1.98 2.09 2.06 1.90 1.97 2.04 2.08 2.12 2.19 2.24 2.33 2.38 2.49 2.27 2.01 1.98 2.06 1.97
0.97 1.18 1.19 1.16 1.13 1.08 1.11 1.20 1.37 1.47 1.63 1.80 1.84 1.82 1.78 1.54 1.62 1.74 1.79 1.81 1.80 1.75 1.64 1.57 1.58 1.68 1.68 1.68 1.65 1.64 1.72 1.81 1.97 2.19 2.28 2.29 2.26 2.34 2.41 2.29 2.21 2.18 2.14
0.95 1.13 1.21 1.18 1.19 1.16 1.13 1.29 1.48 1.64 1.80 1.92 1.90 1.85 1.75 1.68 1.56 1.42 1.39 1.44 1.55 1.56 1.58 1.63 1.43 1.31 1.44 1.46 1.55 1.51 1.46 1.53 1.64 1.87 2.07 2.09 2.16 2.16 2.38 2.39 2.42 2.50 2.49
0.99 1.21 1.30 1.23 1.27 1.35 1.36 1.45 1.67 1.89 2.04 2.05 2.00 1.92 1.89 1.83 1.72 1.50 1.40 1.35 1.49 1.53 1.53 1.55 1.53 1.46 1.45 1.54 1.58 1.51 1.39 1.36 1.33 1.29 1.49 1.76 1.95 2.17 2.23 2.28 2.37 2.44 2.44
1.03 1.20 1.30 1.36 1.45 1.48 1.52 1.70 1.92 2.11 2.15 2.10 2.13 2.07 2.03 2.05 1.89 1.54 1.37 1.36 1.53 1.56 1.56 1.53 1.50 1.46 1.50 1.37 1.33 1.34 1.34 1.31 1.15 1.14 1.22 1.42 1.59 1.65 1.85 2.08 2.26 2.23 2.17
1.35 1.42 1.60 1.78 1.94 2.02 2.06 2.13 2.18 2.24 2.17 2.13 2.13 2.17 2.11 2.11 2.01 1.52 1.29 1.29 1.48 1.53 1.60 1.57 1.47 1.35 1.31 1.18 1.16 1.29 1.28 1.26 1.26 1.19 1.10 1.12 1.19 1.31 1.37 1.44 1.71 1.90 1.83
1.64 1.72 1.91 2.20 2.38 2.36 2.36 2.31 2.24 2.25 2.27 2.24 2.18 2.18 2.14 2.07 1.98 1.57 1.38 1.39 1.54 1.63 1.63 1.59 1.53 1.39 1.19 1.13 1.07 1.11 1.16 1.14 1.20 1.22 1.18 1.13 1.20 1.29 1.25 1.20 1.34 1.52 1.59
1.86 2.02 2.21 2.44 2.39 2.31 2.47 2.40 2.37 2.44 2.42 2.32 2.25 2.17 2.19 2.15 1.97 1.66 1.41 1.46 1.60 1.72 1.78 1.74 1.64 1.42 1.18 1.08 0.99 0.97 0.92 0.86 0.90 1.03 1.06 1.02 1.05 1.16 1.23 1.20 1.23 1.28 1.33
2.06 2.16 2.22 2.31 2.49 2.64 2.69 2.61 2.53 2.51 2.46 2.29 2.19 2.05 1.98 2.06 2.09 1.67 1.38 1.43 1.51 1.55 1.72 1.74 1.48 1.26 1.10 0.95 0.91 0.89 0.79 0.73 0.84 0.91 0.91 0.90 0.89 0.99 1.19 1.31 1.33 1.33 1.28
1.95 1.93 2.01 2.16 2.30 2.38 2.61 2.67 2.58 2.43 2.38 2.34 2.24 2.09 2.00 2.02 2.02 1.69 1.37 1.35 1.42 1.41 1.49 1.55 1.41 1.23 1.08 0.96 0.91 0.86 0.81 0.82 0.90 0.92 0.93 0.96 0.97 1.03 1.11 1.19 1.28 1.32 1.29
1.90 1.85 1.85 1.87 1.97 2.05 2.15 2.24 2.22 2.21 2.04 1.95 1.86 1.81 1.79 1.83 1.79 1.54 1.35 1.35 1.46 1.51 1.46 1.48 1.48 1.35 1.22 1.11 1.07 1.10 1.11 1.06 0.98 0.97 1.00 1.02 0.99 0.99 1.04 1.10 1.17 1.21 1.15
1.76 1.69 1.71 1.72 1.78 1.82 1.82 1.76 1.60 1.54 1.39 1.25 1.20 1.16 1.18 1.24 1.34 1.19 1.07 1.16 1.30 1.36 1.28 1.32 1.42 1.41 1.34 1.25 1.19 1.19 1.17 1.11 1.04 1.04 1.03 1.01 0.98 0.95 0.98 1.02 1.06 1.08 1.05
1.76 1.61 1.51 1.44 1.49 1.52 1.58 1.69 1.75 1.54 1.31 1.13 1.01 0.88 0.86 0.96 1.04 1.04 1.00 1.02 1.11 1.13 1.09 1.16 1.26 1.31 1.27 1.23 1.17 1.14 1.09 1.10 1.11 1.06 1.03 1.03 1.01 0.96 0.94 0.97 0.99 1.05 1.04
1.66 1.56 1.44 1.40 1.43 1.45 1.51 1.60 1.72 1.71 1.46 1.12 0.97 0.85 0.73 0.72 0.75 0.78 0.79 0.83 0.92 0.95 0.96 1.03 1.09 1.13 1.14 1.14 1.13 1.12 1.08 1.09 1.08 1.06 1.02 1.01 1.01 0.97 0.97 0.98 0.95 0.97 1.02
1.49 1.43 1.36 1.39 1.41 1.38 1.41 1.45 1.48 1.51 1.41 1.22 1.02 0.83 0.68 0.58 0.60 0.63 0.62 0.69 0.85 0.90 0.89 0.92 0.94 0.95 0.99 1.02 1.03 1.07 1.06 1.02 1.02 1.05 1.02 0.98 1.01 1.02 1.02 1.01 1.01 1.01 1.02
1.35 1.23 1.14 1.19 1.23 1.22 1.25 1.26 1.26 1.30 1.28 1.20 1.07 0.81 0.61 0.56 0.64 0.71 0.70 0.79 0.88 0.88 0.84 0.87 0.83 0.82 0.87 0.93 0.98 1.03 1.03 1.04 1.07 1.04 1.01 1.00 0.99 1.00 0.97 0.98 1.01 1.03 1.04
1.26 1.08 0.86 0.81 0.89 0.98 1.07 1.13 1.15 1.14 1.15 1.12 0.96 0.70 0.50 0.46 0.59 0.73 0.83 0.87 0.86 0.85 0.80 0.75 0.71 0.73 0.78 0.84 0.88 0.91 0.96 1.03 1.02 1.01 1.05 1.02 0.98 0.98 0.96 0.97 0.96 0.98 1.01
1.13 1.02 0.87 0.78 0.80 0.84 0.92 1.03 1.05 1.02 1.00 0.97 0.86 0.66 0.51 0.45 0.56 0.68 0.75 0.75 0.73 0.75 0.72 0.68 0.66 0.70 0.72 0.75 0.81 0.87 0.92 0.94 0.96 0.98 1.01 1.00 0.99 0.97 0.97 1.01 1.01 1.00 1.01
1.05 0.97 0.86 0.78 0.79 0.79 0.84 0.94 0.95 0.91 0.87 0.82 0.74 0.66 0.58 0.59 0.64 0.70 0.71 0.69 0.69 0.67 0.64 0.64 0.61 0.61 0.66 0.69 0.71 0.77 0.83 0.84 0.85 0.87 0.94 0.98 0.98 0.99 1.03 1.05 1.01 0.96 0.97
0.97 0.94 0.81 0.75 0.76 0.80 0.80 0.82 0.80 0.76 0.73 0.67 0.62 0.61 0.61 0.64 0.66 0.66 0.66 0.64 0.63 0.58 0.55 0.56 0.57 0.57 0.61 0.65 0.66 0.65 0.68 0.70 0.70 0.74 0.79 0.86 0.89 0.95 1.02 1.05 1.01 0.98 1.03
0.91 0.93 0.83 0.74 0.74 0.76 0.75 0.74 0.71 0.68 0.64 0.58 0.55 0.55 0.57 0.59 0.60 0.64 0.63 0.59 0.54 0.52 0.48 0.49 0.55 0.55 0.52 0.53 0.54 0.54 0.58 0.56 0.55 0.62 0.71 0.80 0.82 0.89 1.01 1.05 1.04 1.04 1.11
0.81 0.83 0.78 0.70 0.66 0.67 0.68 0.73 0.73 0.67 0.61 0.54 0.53 0.55 0.51 0.48 0.48 0.50 0.49 0.47 0.46 0.46 0.46 0.48 0.50 0.51 0.50 0.47 0.46 0.47 0.45 0.42 0.44 0.53 0.57 0.65 0.75 0.83 0.91 0.96 0.96 1.03 1.11

GEFSGL_prec_meanprecacc_204.txt.gz
Total_Precipitation_Accumulation
1.56 1.75 1.73 1.58 1.57 1.68 1.61 1.59 1.72 1.76 1.75 1.79 1.78 1.75 1.73 1.85 2.02 2.19 2.18 2.33 2.45 2.50 2.50 2.42 2.33 2.35 2.44 2.35 2.45 2.60 2.80 3.00 2.77 2.44 2.30 2.23 2.17 2.01 1.86 1.59 1.42 1.32 1.19
1.83 2.05 2.05 1.76 1.60 1.53 1.40 1.42 1.62 1.81 1.83 1.80 1.76 1.73 1.67 1.75 1.99 2.16 2.29 2.55 2.67 2.58 2.48 2.44 2.33 2.41 2.51 2.46 2.50 2.49 2.55 2.80 2.74 2.56 2.50 2.52 2.39 2.16 2.05 1.83 1.51 1.35 1.32
1.64 1.89 1.83 1.59 1.43 1.38 1.39 1.45 1.61 1.75 1.76 1.71 1.72 1.75 1.86 1.96 2.16 2.31 2.42 2.61 2.58 2.46 2.46 2.38 2.26 2.29 2.26 2.32 2.36 2.33 2.29 2.35 2.53 2.49 2.42 2.50 2.41 2.20 2.12 1.95 1.79 1.84 1.66
1.20 1.47 1.48 1.34 1.29 1.31 1.38 1.40 1.40 1.43 1.50 1.55 1.74 1.96 2.13 2.25 2.35 2.41 2.41 2.39 2.38 2.28 2.19 2.10 2.08 2.15 2.22 2.24 2.16 2.13 2.16 2.25 2.33 2.36 2.37 2.47 2.49 2.45 2.30 2.15 2.12 2.08 1.91
1.08 1.30 1.28 1.25 1.24 1.21 1.21 1.28 1.34 1.41 1.48 1.69 1.87 1.98 2.02 2.07 2.14 2.27 2.28 2.21 2.16 2.06 1.94 1.76 1.77 2.02 2.13 2.10 1.95 2.03 2.12 2.20 2.25 2.35 2.40 2.49 2.55 2.66 2.42 2.14 2.08 2.15 2.04
0.98 1.20 1.20 1.17 1.14 1.09 1.12 1.20 1.38 1.48 1.64 1.82 1.87 1.85 1.81 1.58 1.67 1.79 1.84 1.85 1.84 1.79 1.68 1.60 1.61 1.71 1.71 1.71 1.70 1.70 1.76 1.86 2.06 2.31 2.44 2.44 2.40 2.48 2.52 2.38 2.28 2.23 2.20
0.96 1.14 1.22 1.19 1.20 1.17 1.14 1.31 1.50 1.66 1.82 1.94 1.92 1.88 1.78 1.71 1.60 1.47 1.44 1.47 1.58 1.60 1.61 1.66 1.46 1.34 1.46 1.49 1.57 1.53 1.48 1.56 1.69 1.94 2.15 2.17 2.24 2.24 2.47 2.46 2.48 2.54 2.53
1.00 1.22 1.31 1.25 1.28 1.36 1.38 1.47 1.69 1.91 2.06 2.07 2.02 1.94 1.90 1.85 1.74 1.51 1.42 1.36 1.50 1.55 1.55 1.57 1.55 1.48 1.46 1.55 1.60 1.53 1.41 1.37 1.35 1.33 1.54 1.82 2.03 2.22 2.27 2.32 2.40 2.47 2.47
1.04 1.21 1.32 1.38 1.47 1.50 1.54 1.72 1.93 2.12 2.17 2.12 2.14 2.09 2.04 2.06 1.90 1.55 1.38 1.36 1.54 1.58 1.57 1.54 1.51 1.47 1.50 1.38 1.34 1.36 1.35 1.31 1.17 1.17 1.24 1.45 1.64 1.68 1.87 2.09 2.29 2.26 2.20
1.37 1.44 1.62 1.80 1.96 2.04 2.09 2.16 2.21 2.28 2.19 2.15 2.15 2.18 2.12 2.11 2.01 1.52 1.30 1.30 1.49 1.54 1.61 1.58 1.48 1.36 1.32 1.19 1.17 1.31 1.29 1.27 1.26 1.19 1.11 1.13 1.20 1.33 1.39 1.45 1.73 1.93 1.85
1.66 1.74 1.94 2.23 2.41 2.41 2.42 2.36 2.29 2.29 2.29 2.26 2.19 2.19 2.15 2.08 1.99 1.58 1.38 1.40 1.55 1.64 1.63 1.60 1.54 1.40 1.20 1.14 1.08 1.12 1.16 1.15 1.20 1.23 1.19 1.14 1.21 1.31 1.26 1.22 1.35 1.54 1.60
1.88 2.04 2.23 2.47 2.42 2.34 2.52 2.46 2.42 2.49 2.46 2.34 2.26 2.18 2.20 2.16 1.98 1.66 1.42 1.46 1.61 1.73 1.79 1.74 1.64 1.43 1.19 1.09 1.00 0.97 0.93 0.87 0.91 1.04 1.08 1.03 1.07 1.17 1.24 1.21 1.24 1.29 1.35
2.07 2.18 2.24 2.33 2.52 2.68 2.75 2.65 2.57 2.55 2.49 2.31 2.20 2.07 2.00 2.06 2.09 1.68 1.40 1.45 1.53 1.58 1.74 1.76 1.50 1.27 1.11 0.96 0.92 0.89 0.79 0.73 0.84 0.92 0.92 0.91 0.90 1.00 1.19 1.32 1.34 1.34 1.29
1.97 1.95 2.03 2.18 2.33 2.43 2.66 2.72 2.63 2.49 2.42 2.36 2.26 2.11 2.02 2.03 2.03 1.70 1.38 1.36 1.43 1.42 1.51 1.57 1.42 1.24 1.09 0.97 0.91 0.86 0.81 0.82 0.90 0.92 0.94 0.97 0.98 1.03 1.12 1.20 1.29 1.33 1.30
1.92 1.87 1.87 1.90 2.00 2.09 2.19 2.29 2.27 2.24 2.06 1.97 1.88 1.83 1.81 1.84 1.80 1.55 1.36 1.35 1.47 1.52 1.47 1.49 1.49 1.36 1.22 1.11 1.08 1.10 1.11 1.06 0.99 0.98 1.01 1.02 1.00 0.99 1.04 1.10 1.18 1.21 1.16
1.78 1.71 1.73 1.75 1.81 1.85 1.85 1.79 1.62 1.55 1.40 1.26 1.22 1.18 1.20 1.25 1.35 1.19 1.07 1.16 1.31 1.37 1.30 1.33 1.43 1.42 1.34 1.25 1.19 1.19 1.18 1.11 1.04 1.05 1.03 1.01 0.99 0.95 0.98 1.02 1.06 1.08 1.06
1.79 1.65 1.54 1.49 1.54 1.55 1.61 1.71 1.76 1.55 1.33 1.15 1.02 0.89 0.87 0.96 1.05 1.05 1.00 1.03 1.11 1.13 1.10 1.17 1.27 1.31 1.27 1.24 1.18 1.15 1.10 1.10 1.11 1.07 1.03 1.03 1.01 0.96 0.94 0.97 0.99 1.05 1.04
1.69 1.60 1.48 1.44 1.47 1.49 1.54 1.62 1.73 1.72 1.46 1.13 0.98 0.86 0.74 0.73 0.75 0.79 0.79 0.84 0.93 0.96 0.97 1.04 1.09 1.14 1.14 1.15 1.14 1.13 1.09 1.10 1.09 1.07 1.03 1.02 1.02 0.97 0.97 0.99 0.96 0.97 1.03
1.51 1.45 1.38 1.41 1.44 1.43 1.48 1.51 1.53 1.54 1.43 1.26 1.06 0.87 0.71 0.60 0.61 0.65 0.64 0.71 0.87 0.91 0.90 0.93 0.94 0.95 0.99 1.03 1.03 1.07 1.06 1.03 1.02 1.06 1.02 0.99 1.01 1.02 1.02 1.01 1.01 1.01 1.02
1.36 1.25 1.16 1.21 1.25 1.25 1.29 1.31 1.30 1.34 1.32 1.24 1.10 0.85 0.63 0.57 0.65 0.72 0.71 0.80 0.89 0.89 0.84 0.87 0.83 0.82 0.87 0.94 0.99 1.04 1.04 1.05 1.07 1.05 1.02 1.00 0.99 1.00 0.98 0.98 1.01 1.03 1.04
1.27 1.09 0.88 0.83 0.91 1.00 1.10 1.16 1.17 1.16 1.17 1.13 0.97 0.71 0.51 0.46 0.59 0.74 0.83 0.87 0.86 0.86 0.80 0.75 0.71 0.73 0.78 0.84 0.89 0.92 0.97 1.04 1.03 1.02 1.06 1.02 0.98 0.99 0.97 0.98 0.97 0.98 1.01
1.16 1.04 0.89 0.80 0.83 0.88 0.96 1.05 1.07 1.03 1.01 0.98 0.86 0.67 0.52 0.45 0.56 0.68 0.75 0.75 0.74 0.75 0.73 0.69 0.66 0.70 0.72 0.76 0.82 0.87 0.92 0.95 0.97 0.99 1.02 1.01 1.00 0.98 0.98 1.02 1.02 1.01 1.02
1.09 1.00 0.88 0.80 0.82 0.82 0.86 0.97 0.97 0.92 0.88 0.83 0.76 0.67 0.59 0.59 0.64 0.70 0.71 0.70 0.70 0.68 0.66 0.65 0.63 0.62 0.67 0.70 0.72 0.78 0.85 0.85 0.86 0.89 0.95 0.99 1.00 1.00 1.04 1.05 1.01 0.97 0.98
1.02 0.98 0.84 0.78 0.79 0.84 0.83 0.85 0.82 0.78 0.74 0.69 0.65 0.63 0.62 0.65 0.67 0.66 0.66 0.65 0.64 0.59 0.56 0.58 0.59 0.59 0.63 0.67 0.67 0.67 0.69 0.71 0.72 0.76 0.82 0.88 0.90 0.97 1.03 1.06 1.02 0.99 1.05
0.95 0.97 0.87 0.78 0.77 0.78 0.78 0.77 0.73 0.71 0.66 0.61 0.58 0.57 0.58 0.60 0.61 0.65 0.64 0.60 0.55 0.53 0.49 0.51 0.57 0.57 0.54 0.55 0.56 0.55 0.60 0.58 0.57 0.64 0.74 0.84 0.85 0.91 1.02 1.06 1.05 1.05 1.12
0.83 0.86 0.81 0.73 0.69 0.70 0.70 0.76 0.76 0.70 0.64 0.57 0.56 0.57 0.53 0.50 0.49 0.51 0.50 0.48 0.47 0.48 0.48 0.49 0.52 0.53 0.51 0.49 0.48 0.49 0.47 0.44 0.46 0.55 0.61 0.70 0.80 0.87 0.93 0.98 0.97 1.05 1.12

GEFSGL_prec_meanprecacc_210.txt.gz
Total_Precipitation_Accumulation
1.56 1.76 1.75 1.60 1.59 1.71 1.64 1.62 1.75 1.79 1.78 1.82 1.82 1.78 1.75 1.87 2.07 2.25 2.25 2.39 2.51 2.56 2.55 2.47 2.37 2.41 2.52 2.45 2.55 2.68 2.87 3.07 2.85 2.55 2.42 2.35 2.32 2.14 1.97 1.69 1.49 1.37 1.24
1.84 2.07 2.06 1.78 1.61 1.54 1.42 1.44 1.64 1.83 1.85 1.82 1.79 1.76 1.71 1.79 2.05 2.23 2.34 2.60 2.73 2.63 2.53 2.49 2.38 2.47 2.57 2.51 2.55 2.53 2.59 2.85 2.80 2.63 2.57 2.60 2.47 2.25 2.14 1.93 1.59 1.44 1.41
1.65 1.90 1.84 1.61 1.45 1.41 1.41 1.47 1.63 1.77 1.78 1.74 1.75 1.79 1.90 2.00 2.20 2.35 2.46 2.66 2.63 2.52 2.52 2.42 2.30 2.34 2.32 2.37 2.41 2.37 2.32 2.40 2.57 2.52 2.45 2.53 2.46 2.26 2.18 2.03 1.89 1.96 1.77
1.20 1.47 1.49 1.36 1.31 1.34 1.40 1.42 1.42 1.46 1.52 1.58 1.77 2.00 2.17 2.30 2.39 2.44 2.45 2.43 2.43 2.34 2.23 2.12 2.10 2.17 2.24 2.25 2.18 2.16 2.20 2.29 2.36 2.39 2.40 2.51 2.53 2.51 2.37 2.23 2.21 2.17 2.00
1.09 1.31 1.29 1.26 1.27 1.24 1.24 1.32 1.38 1.44 1.49 1.71 1.89 2.00 2.05 2.11 2.18 2.30 2.30 2.24 2.19 2.10 1.98 1.79 1.79 2.05 2.17 2.14 1.98 2.05 2.15 2.24 2.29 2.38 2.44 2.55 2.61 2.73 2.49 2.22 2.16 2.23 2.11
0.98 1.21 1.21 1.20 1.18 1.12 1.15 1.25 1.42 1.51 1.66 1.84 1.89 1.87 1.84 1.61 1.71 1.82 1.86 1.87 1.87 1.82 1.71 1.63 1.64 1.73 1.74 1.76 1.74 1.74 1.80 1.90 2.10 2.35 2.47 2.47 2.44 2.53 2.58 2.44 2.33 2.28 2.26
0.97 1.15 1.24 1.22 1.23 1.21 1.19 1.35 1.55 1.70 1.84 1.95 1.94 1.89 1.79 1.72 1.62 1.50 1.49 1.53 1.64 1.65 1.66 1.68 1.46 1.35 1.48 1.51 1.60 1.56 1.51 1.59 1.72 1.97 2.18 2.20 2.26 2.27 2.50 2.49 2.52 2.58 2.57
1.02 1.24 1.33 1.27 1.32 1.40 1.41 1.50 1.72 1.93 2.07 2.08 2.03 1.95 1.91 1.85 1.75 1.53 1.48 1.43 1.55 1.58 1.56 1.57 1.56 1.48 1.47 1.56 1.62 1.56 1.43 1.38 1.36 1.34 1.56 1.84 2.05 2.24 2.28 2.33 2.42 2.48 2.48
1.07 1.24 1.36 1.41 1.50 1.53 1.57 1.75 1.96 2.14 2.18 2.14 2.17 2.10 2.04 2.07 1.91 1.56 1.40 1.38 1.55 1.58 1.57 1.54 1.52 1.47 1.51 1.39 1.36 1.38 1.36 1.32 1.18 1.18 1.25 1.46 1.65 1.70 1.87 2.10 2.29 2.27 2.22
1.39 1.47 1.64 1.82 1.98 2.06 2.11 2.19 2.24 2.31 2.22 2.19 2.18 2.18 2.12 2.12 2.02 1.53 1.30 1.30 1.50 1.54 1.61 1.58 1.49 1.36 1.33 1.20 1.19 1.32 1.30 1.28 1.27 1.20 1.11 1.14 1.21 1.34 1.40 1.45 1.73 1.94 1.86
1.68 1.76 1.95 2.25 2.42 2.42 2.43 2.38 2.30 2.30 2.32 2.30 2.21 2.19 2.15 2.08 1.99 1.58 1.39 1.41 1.55 1.64 1.64 1.60 1.54 1.40 1.20 1.14 1.09 1.13 1.18 1.16 1.22 1.24 1.20 1.15 1.22 1.32 1.27 1.22 1.35 1.54 1.61
1.91 2.06 2.25 2.48 2.43 2.36 2.54 2.48 2.44 2.51 2.50 2.37 2.27 2.18 2.20 2.16 1.98 1.67 1.42 1.47 1.61 1.73 1.80 1.75 1.65 1.44 1.19 1.09 1.01 0.99 0.96 0.89 0.93 1.06 1.08 1.04 1.07 1.18 1.24 1.21 1.25 1.30 1.35
2.09 2.19 2.25 2.35 2.53 2.70 2.77 2.67 2.59 2.59 2.52 2.33 2.22 2.08 2.01 2.07 2.10 1.68 1.40 1.45 1.54 1.58 1.75 1.78 1.53 1.30 1.14 0.98 0.94 0.93 0.82 0.76 0.86 0.93 0.93 0.92 0.91 1.01 1.20 1.33 1.35 1.35 1.30
1.98 1.96 2.04 2.19 2.34 2.44 2.67 2.73 2.65 2.53 2.46 2.39 2.29 2.13 2.03 2.04 2.04 1.71 1.39 1.37 1.43 1.43 1.51 1.58 1.44 1.27 1.13 1.00 0.94 0.89 0.83 0.84 0.92 0.94 0.95 0.98 0.99 1.04 1.12 1.20 1.30 1.34 1.30
1.93 1.88 1.88 1.90 2.01 2.10 2.20 2.31 2.29 2.28 2.10 2.00 1.92 1.85 1.83 1.86 1.82 1.56 1.37 1.36 1.47 1.52 1.47 1.49 1.50 1.37 1.24 1.13 1.10 1.12 1.12 1.07 0.99 0.98 1.01 1.03 1.01 1.00 1.05 1.11 1.19 1.22 1.16
1.79 1.73 1.75 1.76 1.83 1.87 1.88 1.81 1.65 1.58 1.43 1.29 1.25 1.20 1.22 1.27 1.37 1.22 1.09 1.17 1.32 1.37 1.30 1.33 1.44 1.43 1.34 1.26 1.19 1.19 1.18 1.12 1.05 1.05 1.03 1.02 0.99 0.96 0.98 1.03 1.07 1.09 1.06
1.80 1.67 1.56 1.51 1.56 1.58 1.64 1.74 1.79 1.57 1.36 1.18 1.04 0.91 0.89 0.99 1.07 1.08 1.02 1.04 1.12 1.14 1.11 1.17 1.27 1.32 1.28 1.24 1.18 1.15 1.10 1.11 1.12 1.07 1.03 1.03 1.02 0.97 0.95 0.98 1.00 1.06 1.05
1.71 1.63 1.51 1.46 1.49 1.52 1.58 1.66 1.79 1.77 1.50 1.17 1.02 0.89 0.77 0.75 0.77 0.81 0.82 0.86 0.95 0.97 0.98 1.05 1.10 1.14 1.15 1.16 1.15 1.13 1.09 1.10 1.09 1.08 1.04 1.03 1.03 0.98 0.99 1.00 0.97 0.98 1.03
1.53 1.47 1.41 1.44 1.47 1.46 1.52 1.57 1.58 1.61 1.51 1.33 1.11 0.90 0.74 0.63 0.63 0.67 0.66 0.72 0.88 0.92 0.90 0.93 0.95 0.96 0.99 1.03 1.03 1.07 1.07 1.03 1.02 1.06 1.03 1.00 1.02 1.03 1.03 1.02 1.02 1.03 1.04
1.40 1.29 1.20 1.24 1.29 1.28 1.32 1.36 1.35 1.39 1.36 1.27 1.13 0.88 0.65 0.58 0.65 0.72 0.72 0.81 0.90 0.89 0.84 0.87 0.83 0.82 0.87 0.94 0.99 1.04 1.04 1.05 1.07 1.05 1.02 1.01 1.00 1.01 0.98 0.99 1.03 1.05 1.06
1.34 1.15 0.94 0.88 0.96 1.04 1.14 1.20 1.20 1.20 1.21 1.17 0.99 0.73 0.53 0.47 0.60 0.75 0.84 0.87 0.87 0.86 0.80 0.75 0.71 0.73 0.79 0.84 0.89 0.92 0.97 1.04 1.03 1.02 1.06 1.03 0.98 0.99 0.97 0.98 0.98 0.99 1.03
1.26 1.15 0.98 0.88 0.90 0.94 1.01 1.10 1.11 1.06 1.04 1.00 0.89 0.69 0.54 0.47 0.57 0.69 0.76 0.76 0.74 0.76 0.73 0.69 0.66 0.70 0.72 0.76 0.82 0.88 0.93 0.96 0.97 1.00 1.02 1.02 1.01 0.99 0.99 1.03 1.03 1.02 1.03
1.19 1.13 1.02 0.93 0.93 0.91 0.94 1.03 1.02 0.96 0.91 0.86 0.79 0.69 0.61 0.61 0.66 0.71 0.72 0.71 0.71 0.68 0.66 0.66 0.63 0.63 0.67 0.71 0.73 0.79 0.86 0.87 0.88 0.91 0.97 1.01 1.01 1.02 1.05 1.07 1.03 0.99 1.00
1.06 1.03 0.90 0.85 0.85 0.89 0.87 0.88 0.85 0.81 0.78 0.73 0.68 0.66 0.65 0.67 0.68 0.67 0.67 0.67 0.66 0.61 0.57 0.59 0.60 0.60 0.63 0.68 0.68 0.68 0.71 0.74 0.75 0.79 0.85 0.91 0.93 0.99 1.07 1.10 1.06 1.02 1.08
0.97 0.99 0.91 0.83 0.82 0.83 0.81 0.80 0.75 0.73 0.69 0.63 0.60 0.59 0.60 0.62 0.63 0.67 0.66 0.61 0.56 0.55 0.51 0.52 0.58 0.58 0.55 0.56 0.58 0.58 0.63 0.61 0.60 0.67 0.77 0.87 0.88 0.95 1.07 1.11 1.11 1.10 1.17
0.85 0.88 0.83 0.77 0.72 0.73 0.74 0.78 0.78 0.72 0.65 0.59 0.58 0.59 0.56 0.52 0.52 0.54 0.53 0.50 0.49 0.49 0.49 0.51 0.53 0.54 0.53 0.52 0.52 0.53 0.51 0.47 0.49 0.58 0.63 0.72 0.83 0.91 0.98 1.03 1.01 1.07 1.15